Temperature
14 14 14 14 13 13 13 13 13 13 13 13 13 13 13 12 12 12 12 12 12 12 12 12 12 12 12 12 12 12 12 12 12 12 12 11 11 11 12 12 12 12 12
14 14 14 13 13 13 13 13 13 13 13 13 12 12 12 12 12 12 12 12 12 12 12 12 12 12 12 12 12 11 12 11 11 11 11 11 11 11 11 11 11 11 11
14 13 13 13 13 13 13 12 12 12 12 12 12 12 12 12 12 12 12 11 11 11 11 11 11 11 11 11 11 11 11 11 11 11 11 11 11 11 11 11 11 11 11
13 13 13 13 13 12 12 12 12 12 12 12 12 12 11 11 11 11 11 11 11 11 11 11 11 11 11 11 11 11 11 11 11 10 10 10 10 10 10 11 11 11 11
13 13 12 12 12 12 12 12 12 12 11 11 11 11 11 11 11 11 11 11 11 11 10 10 10 11 11 11 11 11 11 10 10 10 10 10 10 10 10 10 10 10 10
13 12 12 12 12 12 12 11 11 11 11 11 11 11 11 10 10 10 10 10 10 10 10 10 10 10 10 10 10 10 10 10 10 10 10 10 10 10 10 10 10 10 10
12 12 12 11 11 11 11 11 11 11 10 10 10 10 10 10 10 10 10 10 10 10 10 10 10 10 10 10 10 10 10 10 10 10 10 10 10 10 10 9 9 9 9
11 11 11 11 11 11 10 10 10 10 10 10 10 10 10 10 10 10 9 9 10 10 10 9 9 10 9 9 9 9 9 9 9 9 9 9 9 9 9 9 9 9 9
11 11 10 10 10 10 10 10 10 9 9 9 9 9 9 9 9 9 9 9 9 9 9 9 9 9 9 9 9 9 9 9 9 9 9 9 9 9 9 9 9 8 8
10 10 10 10 10 10 9 9 9 9 9 9 9 9 9 9 9 9 9 9 9 9 9 9 9 9 8 8 8 8 8 9 8 8 8 8 8 8 8 8 8 8 8
10 10 10 10 9 9 9 9 8 8 8 8 8 8 8 8 8 8 8 8 8 8 8 8 8 8 8 8 8 8 8 8 8 8 8 8 8 8 8 8 8 8 8
9 9 9 9 9 8 8 8 8 8 8 7 7 8 8 8 8 8 8 8 7 8 8 8 7 7 7 7 7 7 7 7 7 7 7 7 7 7 7 7 7 7 7
9 9 9 8 8 8 8 7 7 7 7 7 7 7 7 7 7 7 7 7 7 7 7 7 7 7 7 7 7 7 7 7 7 7 7 7 7 7 7 7 7 7 7
9 8 8 8 8 8 7 7 7 6 6 6 6 6 7 7 7 7 7 7 7 6 7 6 6 6 6 6 6 6 6 6 6 6 6 6 6 6 6 6 6 6 7
8 8 8 7 7 7 7 6 6 6 6 6 6 6 6 6 6 6 6 6 6 6 6 6 6 6 6 6 6 5 5 6 6 6 5 5 5 6 6 6 6 6 6
8 7 7 7 7 6 6 6 6 6 6 6 6 6 6 6 6 6 6 6 6 6 6 6 5 5 5 5 5 5 5 5 5 5 5 5 5 5 5 5 5 5 5
7 7 7 6 6 6 6 5 5 5 5 5 5 5 5 5 5 5 5 5 5 5 5 5 5 5 5 5 5 5 5 5 4 4 4 4 4 4 4 4 4 4 4
7 6 6 6 6 5 5 5 5 5 5 5 5 5 5 5 5 5 5 5 5 5 4 4 4 4 4 4 4 4 4 4 4 4 4 4 4 4 4 4 4 4 4
6 6 6 5 5 5 5 5 4 4 4 4 4 4 4 4 4 4 4 4 4 4 4 4 4 4 3 4 4 4 4 4 3 3 3 3 3 3 3 3 3 3 3
6 6 5 5 5 5 5 4 4 4 4 4 4 4 4 4 4 4 3 3 3 3 3 3 3 3 3 3 3 3 3 3 3 3 3 3 3 3 3 3 3 3 3
6 5 5 5 5 5 4 4 4 4 4 3 3 3 3 3 3 3 3 3 3 3 3 3 3 3 2 2 2 2 2 2 2 2 2 2 2 2 2 2 2 2 2
5 5 5 5 4 4 4 4 4 4 3 3 3 3 3 3 3 3 3 2 2 2 2 2 2 2 2 2 2 2 2 2 2 2 2 2 2 2 2 2 2 2 2
5 5 4 4 4 4 4 4 3 3 3 3 3 3 2 2 2 2 2 2 2 2 2 2 2 2 2 2 2 2 1 1 1 1 1 1 1 1 1 1 1 1 1
4 4 4 4 4 4 3 3 3 3 3 3 2 2 2 2 2 2 2 2 2 2 2 2 2 2 1 1 1 1 1 1 1 1 1 1 1 1 1 1 1 1 0
4 4 4 3 3 3 3 3 3 3 2 2 2 2 2 2 2 2 2 2 2 2 2 1 1 1 1 1 1 1 1 0 0 0 0 0 0 0 0 0 -0 -0 -0
4 4 3 3 3 3 3 2 2 2 2 2 2 2 2 1 1 1 1 1 1 1 1 1 1 1 1 1 0 0 0 0 0 -0 -0 -0 -0 -0 -0 -0 -1 -1 -1
Wind_Speed
3 2 1 1 1 1 2 2 3 2 2 3 3 2 1 1 0 1 1 1 1 1 1 2 2 1 0 0 1 1 1 2 3 2 2 1 1 0 0 1 2 2 3
3 3 2 2 1 1 1 1 1 2 2 2 3 2 2 1 1 2 1 1 1 1 1 1 2 1 1 0 1 1 2 2 3 2 1 1 1 2 1 1 1 1 2
3 3 2 2 2 1 1 1 1 1 1 1 2 2 2 2 2 2 2 2 1 1 2 2 2 1 1 1 1 1 1 1 2 2 2 1 1 1 0 1 0 0 2
3 3 2 1 1 2 2 1 1 1 1 1 1 2 2 2 2 1 2 2 1 1 1 2 2 2 3 3 2 2 2 2 2 2 1 1 1 1 0 1 1 1 2
3 3 2 2 1 1 1 1 0 1 1 1 1 1 1 1 1 1 2 2 2 1 1 1 2 2 2 2 2 3 3 3 2 2 1 1 1 1 1 2 2 2 2
3 2 1 1 1 1 1 1 1 0 0 1 1 1 1 1 1 2 3 2 2 2 1 1 2 2 2 3 3 3 5 4 5 4 3 3 4 4 3 2 2 1 2
3 2 2 2 1 1 1 1 1 0 1 1 1 1 1 2 1 1 2 2 2 2 2 2 1 1 1 1 2 2 3 4 5 6 5 5 4 5 4 3 3 3 4
2 2 1 1 1 1 1 1 0 0 1 1 1 1 1 1 0 1 1 2 2 2 2 3 2 1 1 1 1 1 2 3 4 4 5 6 5 4 5 5 5 4 2
2 1 1 2 1 1 1 0 0 0 0 0 1 2 1 2 1 0 1 1 1 1 1 1 1 1 1 1 1 1 1 3 2 3 3 3 4 3 3 2 2 2 2
2 2 1 1 2 2 1 1 0 0 0 0 0 0 1 1 1 0 1 2 1 0 0 1 1 1 1 2 2 2 2 3 2 1 1 2 2 2 4 4 4 3 2
2 2 1 1 1 2 1 1 1 1 1 0 1 1 1 1 1 1 1 1 2 1 1 1 1 2 2 2 2 2 3 2 2 2 2 2 1 1 2 3 4 5 4
2 2 1 0 1 0 1 1 0 1 0 1 1 2 2 2 2 1 1 1 2 2 2 2 1 2 2 1 2 2 2 1 0 0 1 2 2 3 3 3 4 5 5
2 1 1 0 0 1 1 1 1 1 1 1 1 2 2 2 2 2 1 1 1 1 1 1 1 1 1 1 1 1 0 0 0 0 1 3 3 3 2 2 2 3 2
2 1 1 1 0 0 1 1 1 2 2 2 2 2 3 2 2 2 1 1 1 1 1 1 1 1 1 1 1 1 0 1 1 2 2 2 1 1 1 1 1 1 1
2 1 0 0 0 1 1 2 2 3 4 3 3 3 3 3 4 3 2 1 1 2 0 1 1 1 1 1 1 1 1 1 1 1 1 1 1 1 1 1 1 1 2
2 1 0 0 0 0 1 2 3 3 3 4 3 3 3 3 3 2 2 1 1 1 2 1 1 1 1 1 1 1 1 1 2 1 1 1 1 1 2 1 0 1 2
2 1 1 0 0 1 1 1 2 4 4 4 3 3 3 2 2 2 2 1 1 3 2 1 2 2 2 2 2 2 2 2 1 1 1 1 1 1 1 1 1 2 2
2 2 1 1 1 1 1 2 2 2 2 3 4 4 3 3 3 2 1 1 0 1 1 2 2 2 2 2 2 2 2 1 1 1 1 1 1 1 1 2 2 3 3
2 2 2 2 2 2 2 2 2 2 2 2 2 3 4 3 2 1 1 1 2 2 2 2 2 2 2 2 2 2 1 1 1 1 1 2 2 2 2 2 3 4 3
2 2 2 2 1 1 1 1 2 2 2 2 2 2 2 1 0 1 1 1 2 2 2 2 2 2 2 2 2 2 1 1 1 1 1 2 2 2 3 4 3 3 3
2 2 2 1 2 2 2 2 2 2 2 2 3 3 2 1 2 2 2 2 2 2 2 2 2 2 2 2 2 2 2 2 2 2 2 2 2 2 3 3 3 3 3
2 2 2 2 2 2 2 2 2 3 3 3 3 3 3 1 2 2 2 3 3 3 3 3 3 2 2 3 2 2 2 2 2 2 2 2 2 3 3 3 3 3 3
2 2 2 2 1 2 2 2 2 3 3 3 3 2 2 2 2 3 3 3 2 3 3 3 2 2 3 3 3 3 3 4 4 3 3 3 3 3 3 3 3 3 3
2 2 2 1 1 1 2 2 2 2 2 3 3 3 3 3 3 3 3 3 3 3 3 3 3 3 4 3 3 4 4 5 5 4 4 4 4 3 3 3 3 3 4
2 2 2 2 2 2 2 2 2 2 2 2 3 3 3 3 3 3 3 3 3 3 3 3 3 3 4 4 4 5 5 6 5 4 4 4 4 4 4 3 3 3 4
3 3 3 2 2 2 3 3 2 3 3 3 3 3 3 3 3 3 3 2 2 2 3 3 3 3 4 4 4 5 5 5 5 5 4 3 4 4 4 4 4 4 4
Wind_Direction
177 168 142 168 184 165 170 197 200 201 190 175 175 169 170 166 136 135 173 148 157 208 213 168 210 199 158 245 150 141 153 154 188 252 257 266 192 241 314 215 230 217 227
162 142 141 140 135 148 186 230 212 196 204 197 182 171 176 178 167 149 161 152 171 206 232 206 224 197 167 194 150 161 184 179 175 208 259 287 260 231 212 196 209 216 222
142 143 139 132 133 158 196 245 222 191 198 194 172 174 187 192 179 182 177 177 187 222 226 219 232 188 204 200 174 190 192 177 161 174 227 254 273 278 317 262 271 319 241
135 137 143 166 178 184 191 204 208 175 174 183 181 176 179 173 166 176 175 172 179 213 234 224 224 207 215 199 192 194 183 160 153 160 206 249 263 270 204 213 264 269 268
134 141 172 181 159 156 166 197 197 162 175 162 149 163 180 179 186 167 174 171 168 184 239 259 248 232 236 206 201 192 178 176 175 179 208 234 253 243 232 223 228 248 265
126 144 159 137 115 125 170 162 138 126 169 131 146 172 197 258 255 180 172 177 175 181 217 266 267 261 252 230 217 188 180 186 193 193 212 220 236 230 222 222 213 195 263
130 120 112 108 90 81 80 87 126 171 132 136 169 169 207 259 244 161 154 164 173 196 213 228 261 268 230 237 240 227 212 203 192 192 201 222 225 223 207 212 213 206 226
128 130 132 123 106 81 72 62 100 168 170 197 212 217 215 273 221 178 171 162 169 204 216 211 211 257 254 193 207 234 243 244 230 214 209 222 223 216 208 208 211 223 249
127 146 167 159 146 122 109 113 27 56 42 245 214 212 228 275 282 197 140 166 179 220 223 197 196 217 253 199 169 234 272 281 268 236 233 238 236 220 185 167 173 187 251
177 186 187 167 161 170 191 202 168 99 29 348 349 253 213 260 303 273 149 154 158 226 299 282 249 259 253 204 187 198 241 264 270 275 291 301 274 238 200 190 191 195 220
181 155 139 176 188 179 167 163 131 115 54 6 332 308 294 286 309 303 196 166 181 201 237 277 281 278 275 240 196 204 236 237 222 228 248 266 269 255 236 225 204 194 204
135 137 161 188 243 161 153 183 182 166 208 279 315 320 308 300 308 293 239 212 185 185 218 242 268 283 268 238 208 240 261 235 174 212 252 258 254 256 253 246 238 226 222
125 135 166 156 286 195 189 209 240 228 221 259 264 276 297 306 306 307 280 263 232 196 221 245 283 309 292 275 266 256 244 186 196 241 260 264 254 249 251 255 264 262 264
141 157 161 129 35 350 233 216 226 231 232 241 247 258 277 293 290 290 277 276 281 298 301 311 323 329 345 340 348 342 322 190 195 236 255 268 291 282 267 252 245 254 247
119 123 120 107 207 333 310 264 243 239 232 232 237 235 243 263 268 264 244 234 234 237 195 51 25 10 4 350 351 331 311 300 259 269 260 287 309 293 279 270 239 207 225
127 129 155 82 296 283 325 331 319 304 291 277 264 254 249 255 271 272 268 267 243 167 124 151 231 242 238 254 261 283 288 267 258 242 233 245 271 279 280 279 255 228 245
160 184 197 196 232 279 292 290 310 332 336 320 303 292 279 284 282 275 273 253 190 142 139 213 235 240 245 242 242 243 253 256 240 220 229 248 264 270 277 273 257 249 258
170 193 206 219 228 246 264 273 275 278 305 315 316 311 302 289 275 269 257 120 133 164 196 220 236 248 256 252 248 248 251 258 245 231 237 252 259 261 264 270 262 256 258
185 210 218 222 227 237 253 266 272 271 275 292 312 320 315 308 302 281 156 177 211 221 221 231 239 245 256 262 263 261 251 252 264 254 249 251 254 252 262 267 271 278 264
207 227 223 218 224 239 248 251 258 256 262 273 276 279 306 358 341 265 223 224 227 230 226 234 249 250 247 248 250 252 257 260 268 269 269 274 270 252 260 267 267 267 260
208 220 228 225 220 223 228 235 240 239 249 258 261 264 257 228 233 233 227 226 231 237 239 237 242 248 245 240 240 242 246 256 251 258 271 275 274 273 273 270 269 261 259
195 204 214 220 224 228 231 235 239 243 248 252 266 274 266 256 245 243 238 238 240 240 240 232 236 237 231 231 228 226 231 241 251 257 267 273 277 278 274 276 281 282 274
191 196 212 234 233 253 259 257 253 250 250 251 255 263 253 251 250 251 252 251 247 247 247 237 235 245 251 245 239 224 221 233 241 244 248 260 267 268 271 273 277 289 287
182 194 210 230 237 241 251 260 263 266 270 263 260 258 250 247 254 257 257 258 256 253 253 247 242 245 251 252 251 247 243 245 246 241 239 242 250 259 265 270 273 280 278
192 207 214 220 230 242 254 262 269 274 271 269 268 266 265 259 258 259 256 250 251 255 255 255 253 254 260 257 255 253 252 251 251 246 240 240 249 253 252 258 266 276 274
207 213 219 223 232 239 243 249 259 266 267 268 265 266 266 267 267 268 264 253 256 259 262 263 260 263 270 270 264 266 266 259 253 253 248 240 247 249 249 247 254 261 264
Height
1514 1514 1514 1515 1515 1515 1515 1515 1515 1515 1515 1515 1515 1515 1515 1515 1515 1514 1514 1514 1514 1514 1514 1514 1514 1514 1514 1515 1515 1516 1516 1517 1516 1517 1517 1518 1518 1518 1518 1518 1518 1518 1518
1512 1512 1513 1513 1513 1513 1513 1513 1513 1513 1513 1513 1513 1512 1512 1513 1513 1512 1512 1512 1511 1511 1511 1511 1511 1511 1511 1512 1513 1513 1513 1514 1514 1514 1514 1515 1515 1515 1515 1515 1515 1515 1516
1510 1510 1510 1510 1510 1510 1510 1511 1511 1510 1510 1510 1510 1510 1510 1510 1510 1509 1509 1509 1509 1509 1509 1508 1508 1508 1508 1509 1509 1510 1510 1511 1511 1511 1511 1512 1512 1512 1512 1512 1513 1513 1513
1508 1508 1508 1508 1508 1508 1508 1508 1508 1508 1507 1507 1508 1507 1507 1507 1507 1507 1506 1506 1506 1506 1506 1506 1506 1505 1506 1506 1506 1507 1507 1508 1508 1508 1508 1509 1509 1509 1509 1509 1509 1510 1510
1506 1506 1506 1506 1506 1506 1506 1506 1505 1505 1505 1505 1505 1504 1504 1504 1504 1504 1504 1503 1503 1503 1503 1503 1503 1503 1502 1503 1503 1503 1504 1505 1505 1505 1505 1506 1506 1506 1506 1506 1507 1507 1507
1504 1504 1504 1504 1504 1503 1503 1503 1502 1502 1502 1501 1501 1501 1501 1501 1501 1501 1501 1500 1500 1500 1500 1500 1499 1499 1499 1500 1500 1500 1501 1502 1502 1502 1502 1502 1502 1503 1503 1504 1504 1504 1504
1502 1502 1502 1502 1501 1501 1500 1500 1500 1499 1499 1498 1498 1498 1498 1497 1497 1497 1497 1497 1496 1496 1496 1496 1496 1496 1496 1496 1496 1497 1498 1498 1499 1499 1499 1499 1499 1500 1500 1500 1500 1500 1500
1499 1499 1499 1499 1499 1498 1498 1497 1497 1496 1496 1495 1495 1494 1494 1494 1494 1494 1494 1494 1493 1493 1493 1492 1492 1492 1492 1493 1493 1493 1494 1494 1495 1495 1496 1496 1496 1497 1497 1497 1497 1497 1498
1497 1497 1497 1497 1496 1495 1495 1494 1494 1493 1493 1492 1492 1492 1491 1491 1491 1491 1490 1490 1490 1489 1489 1489 1489 1489 1489 1489 1489 1489 1490 1490 1491 1491 1492 1492 1492 1492 1493 1493 1493 1493 1493
1494 1494 1494 1494 1493 1493 1492 1492 1491 1491 1490 1490 1489 1489 1488 1488 1488 1487 1487 1487 1486 1486 1486 1486 1486 1486 1486 1486 1486 1486 1486 1486 1487 1487 1487 1487 1487 1488 1488 1489 1489 1489 1489
1492 1492 1492 1491 1491 1490 1490 1489 1489 1488 1488 1487 1486 1486 1485 1485 1485 1484 1484 1483 1483 1483 1483 1482 1483 1483 1483 1483 1483 1483 1483 1483 1483 1483 1483 1483 1483 1483 1484 1484 1485 1486 1486
1489 1489 1489 1489 1488 1488 1487 1486 1486 1485 1485 1484 1483 1483 1482 1482 1482 1481 1481 1481 1480 1480 1479 1479 1480 1480 1479 1479 1479 1479 1480 1479 1479 1478 1478 1478 1478 1479 1479 1480 1481 1482 1482
1486 1486 1486 1486 1485 1485 1484 1483 1483 1482 1482 1481 1481 1480 1479 1479 1479 1478 1478 1478 1478 1477 1477 1477 1477 1477 1476 1476 1476 1476 1476 1475 1475 1474 1474 1474 1475 1475 1475 1476 1477 1477 1478
1484 1483 1483 1483 1482 1482 1481 1481 1480 1479 1479 1478 1478 1477 1476 1476 1475 1475 1475 1475 1475 1475 1474 1474 1474 1474 1473 1473 1473 1472 1472 1472 1472 1471 1471 1471 1471 1471 1471 1471 1472 1472 1472
1481 1481 1480 1480 1479 1479 1478 1478 1477 1477 1477 1476 1475 1475 1474 1473 1473 1472 1472 1472 1472 1472 1471 1471 1471 1470 1470 1469 1469 1469 1469 1469 1469 1468 1468 1468 1467 1467 1467 1467 1468 1468 1467
1478 1478 1477 1477 1476 1476 1475 1474 1474 1474 1474 1473 1473 1472 1471 1470 1470 1469 1469 1469 1469 1469 1468 1468 1467 1467 1466 1466 1466 1465 1465 1465 1465 1465 1465 1464 1464 1463 1463 1463 1463 1463 1463
1476 1475 1475 1474 1474 1473 1472 1471 1470 1470 1470 1469 1469 1468 1468 1467 1466 1466 1465 1465 1465 1465 1465 1464 1464 1464 1463 1463 1463 1462 1462 1462 1462 1462 1461 1461 1460 1460 1459 1459 1459 1459 1458
1473 1473 1472 1472 1471 1470 1470 1469 1468 1467 1466 1465 1465 1465 1464 1463 1463 1462 1462 1462 1461 1461 1461 1461 1461 1461 1461 1460 1460 1459 1459 1459 1459 1458 1458 1458 1457 1456 1456 1455 1455 1455 1455
1470 1470 1469 1469 1468 1468 1467 1466 1465 1464 1463 1462 1462 1461 1461 1460 1459 1459 1458 1458 1458 1458 1458 1458 1458 1458 1458 1457 1457 1457 1456 1456 1455 1455 1455 1454 1454 1453 1452 1452 1452 1451 1451
1467 1467 1466 1466 1465 1464 1464 1463 1462 1461 1460 1459 1459 1458 1457 1456 1455 1455 1455 1454 1454 1454 1454 1454 1454 1454 1454 1454 1454 1453 1453 1452 1452 1451 1451 1451 1450 1450 1449 1448 1448 1447 1447
1464 1464 1463 1463 1462 1461 1460 1459 1459 1458 1457 1456 1456 1455 1454 1453 1452 1452 1452 1451 1451 1451 1451 1451 1451 1451 1450 1450 1450 1450 1449 1449 1448 1448 1447 1447 1446 1446 1445 1444 1444 1443 1443
1462 1461 1460 1460 1459 1458 1457 1457 1456 1455 1454 1453 1452 1452 1451 1450 1449 1449 1449 1448 1448 1448 1448 1448 1447 1447 1447 1446 1446 1446 1446 1445 1444 1444 1443 1443 1442 1442 1441 1440 1440 1439 1438
1458 1458 1457 1457 1456 1455 1454 1453 1453 1452 1451 1450 1449 1449 1448 1447 1447 1446 1446 1445 1445 1445 1444 1444 1443 1443 1443 1443 1442 1442 1442 1441 1441 1440 1439 1439 1438 1438 1437 1436 1436 1435 1434
1455 1455 1454 1453 1453 1452 1451 1450 1450 1449 1448 1447 1446 1446 1445 1444 1443 1443 1443 1442 1442 1441 1441 1440 1440 1439 1439 1438 1438 1438 1437 1437 1436 1436 1436 1435 1434 1434 1433 1432 1431 1431 1430
1452 1451 1451 1450 1450 1449 1448 1447 1446 1445 1445 1444 1443 1442 1442 1441 1440 1439 1439 1439 1438 1437 1437 1437 1436 1435 1435 1434 1434 1433 1433 1432 1432 1432 1431 1431 1430 1429 1429 1428 1427 1427 1427
1448 1448 1447 1447 1446 1446 1445 1444 1443 1442 1441 1441 1440 1439 1438 1437 1436 1436 1435 1435 1434 1433 1433 1432 1432 1431 1430 1430 1429 1429 1428 1428 1427 1427 1426 1426 1425 1424 1424 1423 1423 1423 1423